Tracking 19242 objects as of 15-Aug-2018
HD Live streaming from Space Station
objects crossing your sky now

TITAN 3A (TRUSS)

Track TITAN 3A (TRUSS) now!
10-day predictions
TITAN 3A (TRUSS) is classified as:


NORAD ID: 1001
Int'l Code: 1965-008A
Perigee: 2,769.8 km
Apogee: 2,802.8 km
Inclination: 32.1 °
Period: 145.3 minutes
Semi major axis: 9157 km
RCS: 10.9612 m2 (large)
Launch date: February 11, 1965
Source: United States (US)
Launch site: AIR FORCE EASTERN TEST RANGE (AFETR)
aabbcc
Your satellite tracking list
Your tracking list is empty




NASA's NSSDC Master Catalog

Two Line Element Set (TLE):
1  1001U 65008A   18226.91894704 +.00000008 +00000-0 +00000-0 0  9990
2  1001 032.1474 088.5393 0018022 296.8116 063.0539 09.90725549937507
Source of the keplerian elements: AFSPC